VK5ARG-5 Weather Reports


time (UTC)temp
C
wind
direction
speed
KPH
gust
KPH
rain 1hr
cm
rain 24hr
cm
rain mn
cm
humidity
%
barometer
mb
20260509000524 12 111 4.8 6.4 0.00 0.00 0.00 89
20260508235529 12 129 9.7 14.5 0.00 0.00 0.00 88
20260508234524 12 125 8.0 11.3 0.00 0.00 0.00 89
20260508233521 12 119 8.0 14.5 0.00 0.00 0.00 88
20260508232526 12 133 6.4 12.9 0.00 0.00 0.00 89
20260508231522 12 130 6.4 9.7 0.00 0.00 0.00 89
20260508230527 11 134 6.4 9.7 0.00 0.00 0.00 90
20260508225524 11 131 6.4 9.7 0.00 0.00 0.00 91
20260508224528 11 119 3.2 4.8 0.00 0.00 0.00 91
20260508223525 11 166 0.0 3.2 0.00 0.00 0.00 92
20260508222521 11 290 0.0 1.6 0.00 0.00 0.00 92
20260508221526 11 258 3.2 6.4 0.00 0.00 0.00 92
20260508220523 11 244 1.6 3.2 0.00 0.00 0.00 92
20260508215548 11 232 0.0 3.2 0.00 0.00 0.00 92
20260508214523 11 133 1.6 3.2 0.00 0.00 0.00 92
20260508213529 11 134 3.2 4.8 0.00 0.00 0.00 92
20260508212524 11 120 4.8 6.4 0.00 0.00 0.00 93
20260508211521 11 99 4.8 6.4 0.00 0.00 0.00 93
20260508210525 11 79 6.4 8.0 0.00 0.00 0.00 94
20260508205522 11 90 4.8 6.4 0.00 0.00 0.00 94
20260508204527 11 91 4.8 6.4 0.00 0.00 0.00 94
20260508203543 11 83 6.4 8.0 0.00 0.00 0.00 94
20260508202529 11 78 4.8 6.4 0.00 0.00 0.00 93
20260508201524 11 90 4.8 6.4 0.00 0.00 0.00 94
20260508200542 10 76 4.8 6.4 0.00 0.00 0.00 95
20260508195526 10 77 6.4 8.0 0.00 0.00 0.00 95
20260508194522 11 79 6.4 8.0 0.00 0.00 0.00 95
20260508193527 10 86 6.4 8.0 0.00 0.00 0.00 95
20260508192524 11 95 6.4 8.0 0.00 0.00 0.00 95
20260508191548 11 96 8.0 9.7 0.00 0.00 0.00 94
20260508190524 11 104 6.4 9.7 0.00 0.00 0.00 93
20260508185520 11 109 11.3 17.7 0.00 0.00 0.00 95
20260508184525 11 103 9.7 12.9 0.00 0.00 0.00 95
20260508183522 11 115 9.7 14.5 0.00 0.00 0.00 95
20260508182527 11 112 11.3 14.5 0.00 0.00 0.00 95
20260508181523 11 103 9.7 11.3 0.00 0.00 0.00 95
20260508180528 11 102 9.7 14.5 0.00 0.00 0.00 94
20260508175545 11 105 8.0 11.3 0.00 0.00 0.00 94
20260508174521 11 115 6.4 9.7 0.00 0.00 0.00 94
20260508173526 11 112 6.4 8.0 0.00 0.00 0.00 94
20260508172543 11 137 3.2 4.8 0.00 0.00 0.00 94
20260508171526 11 153 4.8 6.4 0.00 0.00 0.00 95
20260508170523 10 135 4.8 6.4 0.00 0.00 0.00 96
20260508165528 10 150 4.8 8.0 0.00 0.00 0.00 96
20260508164524 10 146 4.8 6.4 0.00 0.00 0.00 96
20260508163521 10 145 4.8 6.4 0.00 0.00 0.00 96
20260508162525 10 151 4.8 8.0 0.00 0.00 0.00 95
20260508161541 10 138 4.8 8.0 0.00 0.00 0.00 94
20260508160527 10 132 6.4 9.7 0.00 0.00 0.00 93
20260508155522 11 157 4.8 8.0 0.00 0.00 0.00 92
20260508154528 11 131 8.0 14.5 0.00 0.00 0.00 91
20260508153524 11 121 11.3 14.5 0.00 0.00 0.00 91
20260508152521 11 123 11.3 16.1 0.00 0.00 0.00 92
20260508151525 11 133 14.5 19.3 0.00 0.00 0.00 93
20260508150522 10 138 12.9 19.3 0.00 0.00 0.00 95
20260508145527 10 141 14.5 22.5 0.00 0.00 0.00 97
20260508144523 10 140 12.9 17.7 0.00 0.00 0.00 97
20260508143528 10 141 9.7 17.7 0.00 0.00 0.00 97
20260508142524 10 140 11.3 19.3 0.00 0.00 0.00 97
20260508141520 10 141 11.3 16.1 0.00 0.00 0.00 97
20260508140525 11 147 9.7 16.1 0.00 0.00 0.00 97
20260508135522 11 149 11.3 17.7 0.00 0.00 0.00 97
20260508134528 10 146 9.7 16.1 0.00 0.00 0.00 97
20260508133523 10 144 11.3 17.7 0.00 0.00 0.00 98
20260508132548 10 142 12.9 17.7 0.00 0.00 0.00 99
20260508131544 10 148 9.7 16.1 0.00 0.00 0.00 99
20260508130520 11 154 11.3 17.7 0.00 0.00 0.00 99
20260508125525 11 164 11.3 14.5 0.00 0.00 0.00 99
20260508124522 11 172 9.7 14.5 0.00 0.00 0.00 99
20260508123547 11 175 8.0 11.3 0.00 0.00 0.00 99
20260508122523 11 176 9.7 12.9 0.00 0.00 0.00 99
20260508121529 11 185 9.7 14.5 0.00 0.00 0.00 99
20260508120525 11 199 8.0 11.3 0.00 0.00 0.00 99
20260508115520 11 191 6.4 11.3 0.00 0.00 0.00 99
20260508114525 11 192 6.4 9.7 0.00 0.00 0.00 99
20260508113543 11 185 8.0 9.7 0.00 0.00 0.00 99
20260508112527 11 186 8.0 12.9 0.00 0.00 0.00 99
20260508111523 11 198 6.4 9.7 0.00 0.00 0.00 99
20260508110528 11 212 6.4 11.3 0.00 0.00 0.00 99
20260508105524 11 213 6.4 11.3 0.00 0.00 0.00 99
20260508104521 11 216 8.0 12.9 0.00 0.00 0.00 99
20260508103525 11 235 12.9 17.7 0.00 0.00 0.00 99
20260508102542 11 234 11.3 16.1 0.00 0.00 0.00 99
20260508101527 11 224 9.7 16.1 0.00 0.00 0.00 99
20260508100523 11 227 12.9 19.3 0.00 0.00 0.00 99
20260508095528 11 219 12.9 22.5 0.00 0.00 0.00 99
20260508094524 11 216 11.3 16.1 0.00 0.00 0.00 99
20260508093540 11 215 11.3 16.1 0.00 0.00 0.00 99
20260508092525 12 219 16.1 25.7 0.00 0.00 0.00 99
20260508091522 12 230 16.1 24.1 0.00 0.00 0.00 98
20260508090527 11 223 12.9 19.3 0.00 0.00 0.00 98
20260508085524 11 209 11.3 17.7 0.00 0.00 0.00 98
20260508084529 11 201 12.9 17.7 0.00 0.00 0.00 98
20260508083524 12 195 14.5 20.9 0.00 0.00 0.00 97
20260508082520 12 216 14.5 24.1 0.00 0.00 0.00 97
20260508081545 12 216 14.5 22.5 0.00 0.00 0.00 97
20260508080542 12 217 16.1 24.1 0.00 0.00 0.00 96
20260508075527 12 209 17.7 29.0 0.00 0.00 0.00 95
20260508074544 12 212 20.9 32.2 0.00 0.00 0.00 92
20260508073528 13 228 20.9 30.6 0.00 0.00 0.00 92
20260508072524 12 238 17.7 25.7 0.00 0.00 0.00 94
20260508071541 12 241 16.1 24.1 0.00 0.00 0.00 95
20260508070526 12 236 19.3 27.4 0.00 0.00 0.00 95
20260508065521 13 238 19.3 25.7 0.00 0.00 0.00 95
20260508064526 12 222 19.3 27.4 0.00 0.00 0.00 98
20260508063524 12 223 16.1 24.1 0.00 0.00 0.00 98
20260508062528 12 228 16.1 24.1 0.00 0.00 0.00 98
20260508061524 12 219 16.1 24.1 0.00 0.00 0.00 98
20260508060521 11 216 20.9 29.0 0.00 0.00 0.00 98
20260508055526 12 224 19.3 32.2 0.00 0.00 0.00 97
20260508054522 12 229 22.5 35.4 0.00 0.00 0.00 97
20260508053526 13 213 24.1 33.8 0.00 0.00 0.00 92
20260508052523 13 228 17.7 27.4 0.00 0.00 0.00 96
20260508051548 12 204 19.3 27.4 0.00 0.00 0.00 95
20260508050525 13 211 22.5 32.2 0.00 0.00 0.00 89
20260508045542 12 220 19.3 29.0 0.00 0.00 0.00 91
20260508044526 13 224 20.9 35.4 0.00 0.00 0.00 86
20260508043522 13 228 19.3 33.8 0.00 0.00 0.00 84
20260508042527 13 227 16.1 25.7 0.00 0.00 0.00 89
20260508041523 12 220 19.3 30.6 0.00 0.00 0.00 91
20260508040527 12 222 16.1 24.1 0.00 0.00 0.00 90
20260508035524 12 227 22.5 33.8 0.00 0.00 0.00 90
20260508034521 13 225 20.9 32.2 0.00 0.00 0.00 86
20260508033525 13 236 20.9 29.0 0.00 0.00 0.00 84
20260508032522 12 235 16.1 27.4 0.00 0.00 0.00 89
20260508031526 12 238 20.9 30.6 0.00 0.00 0.00 93
20260508030524 12 228 19.3 32.2 0.00 0.00 0.00 92
20260508025527 12 214 17.7 24.1 0.00 0.00 0.00 90
20260508024523 12 236 20.9 30.6 0.00 0.00 0.00 92
20260508023520 12 236 19.3 25.7 0.00 0.00 0.00 95
20260508022525 11 231 19.3 30.6 0.00 0.00 0.00 96
20260508021521 11 230 17.7 25.7 0.00 0.00 0.00 96
20260508020527 11 224 14.5 22.5 0.00 0.00 0.00 96
20260508015523 11 215 17.7 24.1 0.00 0.00 0.00 94
20260508014549 11 220 20.9 29.0 0.00 0.00 0.00 92
20260508013546 12 226 24.1 33.8 0.00 0.00 0.00 86
20260508012519 12 225 20.9 33.8 0.00 0.00 0.00 84
20260508011526 12 215 19.3 29.0 0.00 0.00 0.00 82
20260508010522 12 225 20.9 29.0 0.00 0.00 0.00 82
20260508005526 12 225 22.5 32.2 0.00 0.00 0.00 83
20260508004522 12 224 22.5 37.0 0.00 0.00 0.00 83
20260508003528 12 231 24.1 32.2 0.00 0.00 0.00 86
20260508002524 12 228 22.5 30.6 0.00 0.00 0.00 85
20260508001520 12 219 17.7 27.4 0.00 0.00 0.00 85